Location: Linz
(48.3300°N, 14.3000°E)
Time: 23:56:33
(UTC+01:00)

ISS - Pass Details

Date: 17 November 2017
Orbit: 401 x 407 km, 51.6° (Epoch: 18 November)

Event Time Altitude Azimuth Distance (km) Brightness Sun altitude
Exits shadow 04:48:30 19° 153° (SSE) 1,016 -1.5 -23.8°
Drops below altitude 10° 04:49:40 10° 143° (SE) 1,449 -0.5 -23.6°
Sets 04:51:49 0° 135° (SE) 2,305 0.7 -23.3°
